Weather History for KNTD - February, 2012

Change the Weather History Date:

Thursday, February 9, 2012

  Actual Average Record
Temperature  
Mean Temperature 62 °F -  
Max Temperature 73 °F 60 °F 88 °F (2006)
Min Temperature 50 °F 44 °F 1 °F (2013)
Degree Days  
Heating Degree Days 4    
Growing Degree Days 12 (Base 50)    
Moisture  
Dew Point 44 °F    
Average Humidity 59    
Maximum Humidity 89    
Minimum Humidity 35    
Precipitation  
Precipitation 0.00 in - - ()
Sea Level Pressure  
Sea Level Pressure 30.16 in    
Wind  
Wind Speed 6 mph (NNW)    
Max Wind Speed 9 mph    
Max Gust Speed -    
Visibility 7 miles    
Events      
Averages and records for this station are not official NWS values.
T = Trace of Precipitation, MM = Missing Value Source: NWS Daily Summary

Daily Weather History Graph

Daily Weather History Graph

Search for Another Location

Airport or City:

Trip Planner

Search our weather history database for the weather conditions in past years. The results will help you decide how hot, cold, wet, or windy it might be!

Date:

Astronomy

Feb. 09, 2012 Rise Set
Actual Time 6:47 AM PST 5:34 PM PST
Civil Twilight 6:21 AM PST 6:00 PM PST
Nautical Twilight 5:52 AM PST 6:29 PM PST
Astronomical Twilight 5:22 AM PST 6:59 PM PST
Moon 7:58 PM PST (2/9) 7:34 AM PST (2/9)
Length of Visible Light 11h 38m
Length of Day
10h 46m
Waning Gibbous, 95% of the Moon is Illuminated
Feb 9
Waning Gibbous
Feb 14
Last Quarter
Feb 21
New
Feb 29
First Quarter
Mar 8
Full

Hourly Weather History & Observations

Time (PST) Temp. Dew Point Humidity Pressure Visibility Wind Dir Wind Speed Gust Speed Precip Events Conditions
12:54 AM 57.9 °F 37.9 °F 47% 30.17 in - North 5.8 mph - N/A   Clear
1:54 AM 55.0 °F 37.9 °F 53% 30.17 in - NNE 6.9 mph - N/A   Clear
2:54 AM 54.0 °F 37.9 °F 55% 30.17 in - North 6.9 mph - N/A   Clear
3:54 AM 51.1 °F 39.0 °F 63% 30.16 in - North 5.8 mph - N/A   Clear
4:54 AM 51.1 °F 37.9 °F 61% 30.16 in - North 8.1 mph - N/A   Clear
5:33 AM 51.8 °F 37.4 °F 58% 30.15 in 7.0 mi North 6.9 mph - N/A   Clear
5:54 AM 51.1 °F 37.9 °F 61% 30.16 in 7.0 mi North 8.1 mph - N/A   Clear
6:54 AM 51.1 °F 37.9 °F 61% 30.17 in 7.0 mi North 9.2 mph - N/A   Partly Cloudy
7:54 AM 57.0 °F 39.0 °F 51% 30.18 in 7.0 mi North 6.9 mph - N/A   Partly Cloudy
8:54 AM 63.0 °F 42.1 °F 46% 30.19 in 7.0 mi North 5.8 mph - N/A   Partly Cloudy
9:54 AM 70.0 °F 41.0 °F 35% 30.20 in 7.0 mi NNW 3.5 mph - N/A   Partly Cloudy
10:54 AM 70.0 °F 46.9 °F 44% 30.20 in 7.0 mi South 5.8 mph - N/A   Partly Cloudy
11:54 AM 73.9 °F 48.0 °F 40% 30.18 in 7.0 mi West 6.9 mph - N/A   Partly Cloudy
12:54 PM 72.0 °F 46.9 °F 41% 30.15 in 7.0 mi WSW 6.9 mph - N/A   Partly Cloudy
1:54 PM 71.1 °F 48.0 °F 44% 30.13 in 7.0 mi West 9.2 mph - N/A   Partly Cloudy
2:54 PM 72.0 °F 44.1 °F 37% 30.12 in 7.0 mi West 6.9 mph - N/A   Clear
3:54 PM 66.0 °F 48.9 °F 54% 30.12 in 7.0 mi West 9.2 mph - N/A   Clear
4:54 PM 64.0 °F 48.9 °F 58% 30.13 in 7.0 mi West 6.9 mph - N/A   Clear
5:54 PM 57.9 °F 48.9 °F 72% 30.13 in 7.0 mi Calm Calm - N/A   Clear
6:54 PM 59.0 °F 50.0 °F 72% 30.15 in 7.0 mi Variable 4.6 mph - N/A   Clear
7:54 PM 57.9 °F 50.0 °F 75% 30.15 in 7.0 mi NNE 3.5 mph - N/A   Clear
8:54 PM 57.0 °F 48.9 °F 74% 30.14 in 7.0 mi NE 3.5 mph - N/A   Clear
9:54 PM 50.0 °F 46.0 °F 86% 30.15 in 7.0 mi NE 5.8 mph - N/A   Partly Cloudy
10:54 PM 53.1 °F 48.9 °F 86% 30.15 in 7.0 mi Calm Calm - N/A   Partly Cloudy
11:54 PM 50.0 °F 46.9 °F 89% 30.14 in - NE 6.9 mph - N/A   Clear